Weather History for Miami, FL

Change the Weather History Date:

Saturday, March 9, 2013

  Actual Average Record
Temperature  
Mean Temperature 67 °F 72 °F  
Max Temperature 77 °F 80 °F 88 °F (1991)
Min Temperature 57 °F 64 °F 42 °F (1940)
Degree Days  
Heating Degree Days 0 0  
Month to date heating degree days 24 8  
Since 1 July heating degree days 60 124  
Cooling Degree Days 2 8  
Month to date cooling degree days 6 64  
Year to date cooling degree days 485 386  
Growing Degree Days 17 (Base 50)    
Moisture  
Dew Point 52 °F    
Average Humidity 63    
Maximum Humidity 80    
Minimum Humidity 46    
Precipitation  
Precipitation 0.00 in 0.09 in 2.87 in (1998)
Month to date precipitation T 0.76  
Year to date precipitation 2.39 4.63  
Snow  
Snow 0.00 in - - ()
Month to date snowfall 0.0  
Since 1 July snowfall 0.0  
Snow Depth 0.00 in    
Sea Level Pressure  
Sea Level Pressure 30.16 in    
Wind  
Wind Speed 8 mph (NNE)    
Max Wind Speed 18 mph    
Max Gust Speed 22 mph    
Visibility 10 miles    
Events      
T = Trace of Precipitation, MM = Missing Value Source: NWS Daily Summary

Daily Weather History Graph

Daily Weather History Graph

Search for Another Location

Airport:

Trip Planner

Search our weather history database for the weather conditions in past years. The results will help you decide how hot, cold, wet, or windy it might be!

Date:

Astronomy

Mar. 09, 2013 Rise Set
Actual Time 6:36 AM EST 6:27 PM EST
Civil Twilight 6:13 AM EST 6:50 PM EST
Nautical Twilight 5:46 AM EST 7:16 PM EST
Astronomical Twilight 5:20 AM EST 7:43 PM EST
Moon 4:49 AM EST (3/9) 4:35 PM EST (3/9)
Length of Visible Light 12h 36m
Length of Day
11h 50m
Waning Crescent, 5% of the Moon is Illuminated
Mar 9
Waning Crescent
Mar 11
New
Mar 19
First Quarter
Mar 27
Full
Apr 3
Last Quarter

Hourly Weather History & Observations

Time (EST) Temp. Dew Point Humidity Pressure Visibility Wind Dir Wind Speed Gust Speed Precip Events Conditions
12:53 AM 62.1 °F 48.9 °F 62% 30.16 in 10.0 mi Calm Calm - N/A   Scattered Clouds
1:53 AM 61.0 °F 50.0 °F 67% 30.16 in 10.0 mi WNW 4.6 mph - N/A   Mostly Cloudy
2:53 AM 60.1 °F 50.0 °F 69% 30.14 in 10.0 mi WNW 3.5 mph - N/A   Mostly Cloudy
3:53 AM 57.9 °F 51.1 °F 78% 30.12 in 10.0 mi NW 3.5 mph - N/A   Scattered Clouds
4:53 AM 57.9 °F 52.0 °F 81% 30.13 in 10.0 mi Calm Calm - N/A   Scattered Clouds
5:53 AM 57.9 °F 52.0 °F 81% 30.15 in 10.0 mi WNW 4.6 mph - N/A   Clear
6:53 AM 57.0 °F 52.0 °F 83% 30.16 in 7.0 mi NW 3.5 mph - N/A   Partly Cloudy
7:53 AM 61.0 °F 53.1 °F 75% 30.18 in 10.0 mi NNW 6.9 mph - N/A   Partly Cloudy
8:53 AM 66.9 °F 53.1 °F 61% 30.19 in 10.0 mi North 6.9 mph - N/A   Partly Cloudy
9:53 AM 72.0 °F 52.0 °F 49% 30.20 in 10.0 mi North 5.8 mph - N/A   Partly Cloudy
10:53 AM 73.9 °F 54.0 °F 50% 30.19 in 10.0 mi ENE 9.2 mph - N/A   Scattered Clouds
11:53 AM 75.0 °F 55.9 °F 51% 30.18 in 10.0 mi ENE 10.4 mph 18.4 mph N/A   Mostly Cloudy
12:53 PM 75.9 °F 55.0 °F 48% 30.17 in 10.0 mi NE 11.5 mph - N/A   Mostly Cloudy
1:53 PM 73.9 °F 54.0 °F 50% 30.14 in 10.0 mi NNE 5.8 mph - N/A   Mostly Cloudy
2:53 PM 75.0 °F 54.0 °F 48% 30.13 in 10.0 mi ENE 12.7 mph 21.9 mph N/A   Mostly Cloudy
3:53 PM 73.0 °F 55.0 °F 53% 30.14 in 10.0 mi East 15.0 mph - N/A   Mostly Cloudy
4:53 PM 71.1 °F 54.0 °F 55% 30.13 in 10.0 mi ENE 15.0 mph 21.9 mph N/A   Mostly Cloudy
5:53 PM 69.1 °F 54.0 °F 58% 30.14 in 10.0 mi NE 11.5 mph - N/A   Mostly Cloudy
6:53 PM 69.1 °F 52.0 °F 54% 30.16 in 10.0 mi ENE 11.5 mph - N/A   Mostly Cloudy
7:53 PM 68.0 °F 52.0 °F 56% 30.18 in 10.0 mi NE 11.5 mph - N/A   Mostly Cloudy
8:53 PM 66.9 °F 51.1 °F 57% 30.19 in 10.0 mi NE 8.1 mph - N/A   Scattered Clouds
9:53 PM 68.0 °F 51.1 °F 55% 30.20 in 10.0 mi ENE 6.9 mph - N/A   Mostly Cloudy
10:53 PM 68.0 °F 52.0 °F 56% 30.18 in 10.0 mi East 10.4 mph - N/A   Mostly Cloudy
11:53 PM 68.0 °F 52.0 °F 56% 30.18 in 10.0 mi East 10.4 mph - N/A   Overcast